Weather in Kupiansk

Ukraine / Kharkiv Region     49°42′42″N   37°36′48″E
temp.,
°C
wind,
m/s
gust,
m/s
humid.,
%
clouds,
%
prec.,
mm/h
press.,
hPa
HPBL,
m
12 april, mon
mon1200:00+9ne61164100 0.0 1024598
03:00+8ne51085100 0.0 1024296
06:00+7ne51096100 0.0 1022271
09:00+12ene61078100 0.0 1021435
12:00+19ese584516 0.0 10201000
15:00+21se71035100 0.0 10201716
18:00+18sse51049100 0.0 1020502
21:00+13se356661 0.0 102282
13 april, tue
tue1300:00+12sse228089 0.0 102216
03:00+10s1187100 0.0 102210
06:00+10e228893 0.0 102211
09:00+14ese4766100 0.0 1022424
12:00+18se794355 0.0 10211478
15:00+16se595550 0.0 10211214
18:00+16sse376299 0.0 1020345
21:00+12sse228051 0.0 102119
14 april, wed
wed1400:00+11se248699 0.0 1020155
03:00+11ese2488100 0.1 1019130
06:00+10s238995 0.2 101998
09:00+13s237598 0.3 1019491
12:00+15ssw3467100 0.3 1018797
15:00+12s3575100 1.1 1018390
18:00+11se2482100 0.4 1017163
21:00+11ssw2275100 0.4 101711
15 april, thu
thu1500:00+11ese2276100 0.0 101729
03:00+11ese1175100 0.0 101610
06:00+9s2283100 0.0 101611
09:00+13s126792 0.0 1016383
12:00+17sse235115 0.1 10151587
15:00+19ssw44375 0.1 10142274
18:00+17s354017 0.0 1013525
21:00+13sw3868100 0.1 1014308
16 april, fri
fri1600:00+11sw357460 0.0 101485
03:00+10ssw248281 0.0 101493
06:00+9ssw119063 0.0 101513
09:00+12sw237364 0.0 1015705
12:00+16s345442 0.1 10151545
15:00+16s3346100 0.4 10141627
18:00+15sw2353100 0.0 101490
21:00+12n2266100 0.3 101678